| time (UTC) | temp F | wind direction | speed knots | gust knots | rain 1hr in | rain 24hr in | rain mn in | humidity % | barometer mb |
| 20260505112009 | 68 | 14 | 1.7 | 2.6 | 0.00 | 0.00 | 0.00 | 87 | 1024.0 |
| 20260505111502 | 68 | 354 | 0.0 | 0.0 | 0.00 | 0.00 | 0.00 | 88 | 1023.9 |
| 20260505110959 | 67 | 356 | 0.0 | 0.9 | 0.00 | 0.00 | 0.00 | 90 | 1023.9 |
| 20260505110455 | 67 | 85 | 3.5 | 4.3 | 0.00 | 0.00 | 0.00 | 89 | 1024.1 |
| 20260505101920 | 66 | 17 | 0.0 | 0.9 | 0.00 | 0.00 | 0.00 | 91 | 1023.6 |
| 20260505101415 | 66 | 7 | 0.0 | 0.9 | 0.00 | 0.00 | 0.00 | 92 | 1023.7 |
| 20260505100911 | 66 | 50 | 0.0 | 0.0 | 0.00 | 0.00 | 0.00 | 93 | 1023.7 |
| 20260505100408 | 65 | 32 | 0.0 | 0.0 | 0.00 | 0.00 | 0.00 | 94 | 1023.5 |
| 20260505095903 | 65 | 94 | 0.9 | 0.9 | 0.00 | 0.00 | 0.00 | 95 | 1023.4 |
| 20260505095401 | 64 | 14 | 0.9 | 1.7 | 0.00 | 0.00 | 0.00 | 95 | 1023.5 |
| 20260505094857 | 64 | 59 | 0.9 | 0.9 | 0.00 | 0.00 | 0.00 | 95 | 1023.4 |
| 20260505094354 | 64 | 17 | 0.9 | 1.7 | 0.00 | 0.00 | 0.00 | 95 | 1023.2 |
| 20260505093849 | 64 | 11 | 0.9 | 1.7 | 0.00 | 0.00 | 0.00 | 95 | 1023.5 |
| 20260505093347 | 64 | 37 | 0.0 | 0.9 | 0.00 | 0.00 | 0.00 | 95 | 1023.3 |
| 20260505092844 | 64 | 18 | 0.9 | 1.7 | 0.00 | 0.00 | 0.00 | 95 | 1023.4 |
| 20260505092342 | 64 | 24 | 0.0 | 0.9 | 0.00 | 0.00 | 0.00 | 95 | 1023.0 |
| 20260505091839 | 64 | 16 | 0.0 | 0.0 | 0.00 | 0.00 | 0.00 | 95 | 1023.2 |
| 20260505091337 | 64 | 62 | 0.0 | 0.0 | 0.00 | 0.00 | 0.00 | 95 | 1023.0 |
| 20260505090835 | 64 | 28 | 0.0 | 0.9 | 0.00 | 0.00 | 0.00 | 95 | 1023.0 |
| 20260505090333 | 64 | 347 | 0.9 | 0.9 | 0.00 | 0.00 | 0.00 | 95 | 1022.6 |
| 20260505085830 | 64 | 24 | 0.0 | 0.9 | 0.00 | 0.00 | 0.00 | 95 | 1022.9 |
| 20260505085328 | 64 | 80 | 0.9 | 1.7 | 0.00 | 0.00 | 0.00 | 95 | 1023.0 |
| 20260505084825 | 64 | 351 | 0.9 | 0.9 | 0.00 | 0.00 | 0.00 | 95 | 1022.7 |
| 20260505084324 | 64 | 23 | 0.0 | 0.9 | 0.00 | 0.00 | 0.00 | 95 | 1022.5 |
| 20260505083820 | 64 | 9 | 0.9 | 0.9 | 0.00 | 0.00 | 0.00 | 95 | 1022.5 |
| 20260505083318 | 64 | 20 | 0.9 | 0.9 | 0.00 | 0.00 | 0.00 | 95 | 1022.6 |
| 20260505082814 | 64 | 59 | 3.5 | 4.3 | 0.00 | 0.00 | 0.00 | 95 | 1022.4 |
| 20260505082311 | 64 | 57 | 0.0 | 0.9 | 0.00 | 0.00 | 0.00 | 95 | 1022.3 |
| 20260505081807 | 64 | 30 | 0.0 | 0.9 | 0.00 | 0.00 | 0.00 | 95 | 1022.4 |
| 20260505081304 | 64 | 358 | 0.9 | 0.9 | 0.00 | 0.00 | 0.00 | 95 | 1022.3 |
| 20260505080801 | 64 | 17 | 0.9 | 0.9 | 0.00 | 0.00 | 0.00 | 95 | 1022.2 |
| 20260505080257 | 64 | 46 | 2.6 | 2.6 | 0.00 | 0.00 | 0.00 | 95 | 1022.2 |
| 20260505075752 | 64 | 355 | 1.7 | 2.6 | 0.00 | 0.00 | 0.00 | 95 | 1022.3 |
| 20260505075249 | 64 | 42 | 1.7 | 1.7 | 0.00 | 0.00 | 0.00 | 94 | 1022.3 |
| 20260505074747 | 65 | 47 | 1.7 | 2.6 | 0.00 | 0.00 | 0.00 | 94 | 1022.5 |
| 20260505074244 | 65 | 79 | 1.7 | 1.7 | 0.00 | 0.00 | 0.00 | 94 | 1022.3 |
| 20260505073741 | 65 | 31 | 0.9 | 2.6 | 0.00 | 0.00 | 0.00 | 94 | 1022.2 |
| 20260505073239 | 65 | 20 | 1.7 | 1.7 | 0.00 | 0.00 | 0.00 | 94 | 1022.2 |
| 20260505072735 | 65 | 24 | 0.0 | 0.9 | 0.00 | 0.00 | 0.00 | 94 | 1022.3 |
| 20260505072232 | 65 | 80 | 0.9 | 1.7 | 0.00 | 0.00 | 0.00 | 94 | 1022.3 |
| 20260505071727 | 65 | 40 | 0.9 | 0.9 | 0.00 | 0.00 | 0.00 | 94 | 1022.2 |
| 20260505071225 | 65 | 63 | 1.7 | 2.6 | 0.00 | 0.00 | 0.00 | 94 | 1022.4 |
| 20260505070722 | 65 | 9 | 0.0 | 0.9 | 0.00 | 0.00 | 0.00 | 94 | 1022.4 |
| 20260505070218 | 65 | 82 | 0.9 | 2.6 | 0.00 | 0.00 | 0.00 | 94 | 1022.4 |
| 20260505065714 | 65 | 341 | 1.7 | 2.6 | 0.00 | 0.00 | 0.00 | 94 | 1022.4 |
| 20260505065211 | 65 | 33 | 1.7 | 1.7 | 0.00 | 0.00 | 0.00 | 94 | 1022.5 |
| 20260505064708 | 65 | 0 | 0.9 | 1.7 | 0.00 | 0.00 | 0.00 | 94 | 1022.6 |
| 20260505064206 | 65 | 44 | 1.7 | 2.6 | 0.00 | 0.00 | 0.00 | 94 | 1022.7 |
| 20260505063703 | 65 | 85 | 0.9 | 1.7 | 0.00 | 0.00 | 0.00 | 94 | 1022.6 |
| 20260505063159 | 65 | 357 | 0.9 | 1.7 | 0.00 | 0.00 | 0.00 | 94 | 1022.6 |
| 20260505062655 | 65 | 71 | 1.7 | 2.6 | 0.00 | 0.00 | 0.00 | 93 | 1022.6 |
| 20260505062153 | 65 | 101 | 1.7 | 1.7 | 0.00 | 0.00 | 0.00 | 93 | 1022.5 |
| 20260505061650 | 65 | 105 | 0.9 | 0.9 | 0.00 | 0.00 | 0.00 | 93 | 1022.6 |
| 20260505061148 | 65 | 353 | 2.6 | 2.6 | 0.00 | 0.00 | 0.00 | 93 | 1022.8 |
| 20260505060645 | 65 | 113 | 1.7 | 4.3 | 0.00 | 0.00 | 0.00 | 93 | 1022.5 |
| 20260505060142 | 65 | 76 | 1.7 | 1.7 | 0.00 | 0.00 | 0.00 | 93 | 1022.8 |
| 20260505055637 | 65 | 339 | 0.9 | 0.9 | 0.00 | 0.00 | 0.00 | 94 | 1022.8 |
| 20260505055134 | 65 | 45 | 0.9 | 1.7 | 0.00 | 0.00 | 0.00 | 94 | 1022.6 |
| 20260505054632 | 65 | 80 | 0.0 | 0.0 | 0.00 | 0.00 | 0.00 | 94 | 1022.9 |
| 20260505054129 | 65 | 39 | 0.0 | 0.0 | 0.00 | 0.00 | 0.00 | 94 | 1022.7 |
| 20260505053627 | 65 | 70 | 0.0 | 0.0 | 0.00 | 0.00 | 0.00 | 94 | 1022.7 |
| 20260505053123 | 65 | 3 | 0.0 | 0.0 | 0.00 | 0.00 | 0.00 | 94 | 1022.6 |
| 20260505052620 | 66 | 68 | 0.0 | 0.9 | 0.00 | 0.00 | 0.00 | 94 | 1022.8 |
| 20260505052117 | 66 | 358 | 0.0 | 0.0 | 0.00 | 0.00 | 0.00 | 94 | 1022.9 |
| 20260505051614 | 66 | 0 | 0.0 | 0.0 | 0.00 | 0.00 | 0.00 | 93 | 1022.9 |
| 20260505051112 | 66 | 359 | 0.0 | 0.0 | 0.00 | 0.00 | 0.00 | 93 | 1022.6 |
| 20260505050610 | 66 | 7 | 0.0 | 0.0 | 0.00 | 0.00 | 0.00 | 93 | 1022.6 |
| 20260505050108 | 66 | 356 | 0.9 | 1.7 | 0.00 | 0.00 | 0.00 | 93 | 1022.8 |
| 20260505041538 | 66 | 24 | 0.0 | 0.0 | 0.00 | 0.00 | 0.00 | 93 | 1023.3 |
| 20260505041035 | 66 | 13 | 1.7 | 2.6 | 0.00 | 0.00 | 0.00 | 93 | 1023.4 |
| 20260505040532 | 66 | 23 | 0.9 | 1.7 | 0.00 | 0.00 | 0.00 | 93 | 1023.3 |
| 20260505040029 | 66 | 35 | 0.9 | 0.9 | 0.00 | 0.00 | 0.00 | 93 | 1023.2 |
| 20260505035525 | 66 | 76 | 0.9 | 0.9 | 0.00 | 0.00 | 0.00 | 93 | 1023.5 |
| 20260505035022 | 66 | 56 | 0.9 | 0.9 | 0.00 | 0.00 | 0.00 | 93 | 1023.0 |
| 20260505034519 | 66 | 30 | 1.7 | 1.7 | 0.00 | 0.00 | 0.00 | 93 | 1023.3 |
| 20260505034016 | 66 | 67 | 1.7 | 2.6 | 0.00 | 0.00 | 0.00 | 93 | 1023.4 |
| 20260505033513 | 66 | 338 | 0.9 | 0.9 | 0.00 | 0.00 | 0.00 | 94 | 1023.3 |
| 20260505033011 | 66 | 24 | 0.0 | 0.0 | 0.00 | 0.00 | 0.00 | 94 | 1023.4 |
| 20260505032508 | 66 | 7 | 0.9 | 0.9 | 0.00 | 0.00 | 0.00 | 94 | 1023.3 |
| 20260505032004 | 66 | 64 | 0.0 | 0.0 | 0.00 | 0.00 | 0.00 | 94 | 1023.5 |
| 20260505031501 | 66 | 72 | 0.9 | 0.9 | 0.00 | 0.00 | 0.00 | 94 | 1023.2 |
| 20260505030958 | 66 | 8 | 0.0 | 0.0 | 0.00 | 0.00 | 0.00 | 94 | 1023.4 |
| 20260505030454 | 65 | 32 | 0.0 | 0.0 | 0.00 | 0.00 | 0.00 | 95 | 1023.5 |
| 20260505025949 | 65 | 85 | 0.9 | 0.9 | 0.00 | 0.00 | 0.00 | 95 | 1023.6 |
| 20260505025447 | 65 | 62 | 0.9 | 0.9 | 0.00 | 0.00 | 0.00 | 95 | 1023.3 |
| 20260505024946 | 65 | 55 | 0.9 | 0.9 | 0.00 | 0.00 | 0.00 | 95 | 1023.3 |
| 20260505024443 | 65 | 19 | 0.0 | 0.0 | 0.00 | 0.00 | 0.00 | 95 | 1023.3 |
| 20260505023940 | 65 | 68 | 0.0 | 0.0 | 0.00 | 0.00 | 0.00 | 95 | 1023.5 |
| 20260505023437 | 65 | 8 | 0.0 | 0.0 | 0.00 | 0.00 | 0.00 | 95 | 1023.3 |
| 20260505022934 | 65 | 61 | 0.0 | 0.0 | 0.00 | 0.00 | 0.00 | 95 | 1023.6 |
| 20260505022432 | 65 | 3 | 0.0 | 0.0 | 0.00 | 0.00 | 0.00 | 95 | 1023.4 |
| 20260505021929 | 65 | 18 | 0.0 | 0.0 | 0.00 | 0.00 | 0.00 | 95 | 1023.4 |
| 20260505021425 | 65 | 20 | 0.0 | 0.0 | 0.00 | 0.00 | 0.00 | 95 | 1023.4 |
| 20260505020921 | 65 | 353 | 0.0 | 0.0 | 0.00 | 0.00 | 0.00 | 95 | 1023.5 |
| 20260505020416 | 65 | 5 | 0.0 | 0.0 | 0.00 | 0.00 | 0.00 | 95 | 1023.3 |
| 20260505015913 | 65 | 81 | 0.9 | 0.9 | 0.00 | 0.00 | 0.00 | 95 | 1023.5 |
| 20260505015411 | 65 | 17 | 0.0 | 0.0 | 0.00 | 0.00 | 0.00 | 95 | 1023.4 |
| 20260505014908 | 65 | 11 | 0.9 | 0.9 | 0.00 | 0.00 | 0.00 | 95 | 1023.3 |
| 20260505014405 | 65 | 40 | 2.6 | 4.3 | 0.00 | 0.00 | 0.00 | 95 | 1023.5 |
| 20260505013901 | 65 | 29 | 0.9 | 1.7 | 0.00 | 0.00 | 0.00 | 95 | 1023.2 |
| 20260505013358 | 65 | 91 | 0.0 | 0.9 | 0.00 | 0.00 | 0.00 | 95 | 1023.2 |
| 20260505012857 | 65 | 30 | 0.9 | 1.7 | 0.00 | 0.00 | 0.00 | 95 | 1023.2 |
| 20260505012354 | 65 | 358 | 0.9 | 0.9 | 0.00 | 0.00 | 0.00 | 95 | 1023.2 |
| 20260505011850 | 65 | 122 | 1.7 | 1.7 | 0.00 | 0.00 | 0.00 | 95 | 1023.2 |
| 20260505011347 | 65 | 54 | 0.9 | 0.9 | 0.00 | 0.00 | 0.00 | 95 | 1023.2 |
| 20260505010843 | 65 | 6 | 0.9 | 0.9 | 0.00 | 0.00 | 0.00 | 95 | 1023.4 |
| 20260505010339 | 65 | 7 | 0.9 | 0.9 | 0.00 | 0.00 | 0.00 | 95 | 1023.3 |
| 20260505005836 | 65 | 14 | 0.9 | 0.9 | 0.00 | 0.00 | 0.00 | 96 | 1023.3 |
| 20260505005332 | 65 | 4 | 0.0 | 0.0 | 0.00 | 0.00 | 0.00 | 96 | 1023.2 |
| 20260505004830 | 65 | 72 | 0.0 | 0.9 | 0.00 | 0.00 | 0.00 | 96 | 1023.4 |
| 20260505004326 | 65 | 9 | 0.0 | 0.0 | 0.00 | 0.00 | 0.00 | 96 | 1023.5 |
| 20260505003824 | 65 | 1 | 0.0 | 0.0 | 0.00 | 0.00 | 0.00 | 96 | 1023.4 |
| 20260505003321 | 65 | 319 | 0.0 | 0.0 | 0.00 | 0.00 | 0.00 | 96 | 1023.2 |
| 20260505002816 | 65 | 1 | 0.0 | 0.0 | 0.00 | 0.00 | 0.00 | 96 | 1023.3 |
| 20260505002314 | 64 | 18 | 0.0 | 0.0 | 0.00 | 0.00 | 0.00 | 96 | 1023.3 |
| 20260505001812 | 64 | 50 | 0.0 | 0.0 | 0.00 | 0.00 | 0.00 | 96 | 1023.0 |
| 20260505001309 | 64 | 13 | 0.0 | 0.0 | 0.00 | 0.00 | 0.00 | 97 | 1022.9 |
| 20260505000806 | 64 | 133 | 0.0 | 0.0 | 0.00 | 0.00 | 0.00 | 97 | 1023.2 |
| 20260505000304 | 64 | 90 | 1.7 | 1.7 | 0.00 | 0.00 | 0.00 | 96 | 1023.0 |
| 20260504235800 | 64 | 88 | 1.7 | 1.7 | 0.00 | 0.00 | 0.00 | 96 | 1023.2 |
| 20260504235256 | 64 | 66 | 0.9 | 0.9 | 0.00 | 0.00 | 0.00 | 96 | 1023.2 |
| 20260504234754 | 64 | 85 | 0.0 | 0.9 | 0.00 | 0.00 | 0.00 | 97 | 1022.9 |
| 20260504234251 | 64 | 85 | 2.6 | 2.6 | 0.00 | 0.00 | 0.00 | 97 | 1023.2 |
| 20260504233747 | 64 | 358 | 0.0 | 0.0 | 0.00 | 0.00 | 0.00 | 97 | 1023.0 |
| 20260504233243 | 64 | 273 | 0.9 | 0.9 | 0.00 | 0.00 | 0.00 | 97 | 1023.0 |
| 20260504232740 | 64 | 183 | 1.7 | 1.7 | 0.00 | 0.00 | 0.00 | 97 | 1022.9 |
| 20260504232237 | 64 | 85 | 0.9 | 1.7 | 0.00 | 0.00 | 0.00 | 97 | 1023.0 |
| 20260504231734 | 64 | 75 | 2.6 | 2.6 | 0.00 | 0.00 | 0.00 | 97 | 1022.9 |
| 20260504231231 | 64 | 34 | 2.6 | 4.3 | 0.00 | 0.00 | 0.00 | 97 | 1022.8 |
| 20260504230726 | 64 | 165 | 3.5 | 4.3 | 0.00 | 0.00 | 0.00 | 97 | 1023.0 |
| 20260504230225 | 64 | 194 | 7.8 | 7.8 | 0.00 | 0.00 | 0.00 | 97 | 1022.9 |
| 20260504225724 | 64 | 152 | 3.5 | 6.1 | 0.00 | 0.00 | 0.00 | 97 | 1022.7 |
| 20260504225220 | 64 | 156 | 5.2 | 6.1 | 0.00 | 0.00 | 0.00 | 97 | 1022.6 |
| 20260504224717 | 64 | 73 | 2.6 | 4.3 | 0.00 | 0.00 | 0.00 | 97 | 1022.5 |
| 20260504224214 | 64 | 178 | 3.5 | 7.0 | 0.00 | 0.00 | 0.00 | 97 | 1022.4 |
| 20260504223710 | 64 | 183 | 3.5 | 4.3 | 0.00 | 0.00 | 0.00 | 96 | 1022.5 |
| 20260504223206 | 65 | 102 | 6.1 | 7.0 | 0.00 | 0.00 | 0.00 | 95 | 1022.5 |
| 20260504222703 | 65 | 144 | 2.6 | 2.6 | 0.00 | 0.00 | 0.00 | 95 | 1022.7 |
| 20260504222200 | 65 | 346 | 0.9 | 0.9 | 0.00 | 0.00 | 0.00 | 96 | 1022.1 |
| 20260504221657 | 64 | 174 | 3.5 | 4.3 | 0.00 | 0.00 | 0.00 | 96 | 1022.3 |
| 20260504221154 | 64 | 171 | 3.5 | 5.2 | 0.00 | 0.00 | 0.00 | 96 | 1022.3 |
| 20260504220650 | 64 | 191 | 5.2 | 6.1 | 0.00 | 0.00 | 0.00 | 96 | 1021.7 |
| 20260504220148 | 64 | 124 | 0.9 | 1.7 | 0.00 | 0.00 | 0.00 | 96 | 1022.0 |
| 20260504215644 | 64 | 143 | 3.5 | 4.3 | 0.00 | 0.00 | 0.00 | 96 | 1021.9 |
| 20260504215142 | 64 | 196 | 1.7 | 1.7 | 0.00 | 0.00 | 0.00 | 96 | 1021.6 |
| 20260504214637 | 64 | 181 | 4.3 | 4.3 | 0.00 | 0.00 | 0.00 | 95 | 1021.6 |
| 20260504214134 | 64 | 188 | 1.7 | 1.7 | 0.00 | 0.00 | 0.00 | 95 | 1021.6 |
| 20260504213631 | 65 | 205 | 3.5 | 4.3 | 0.00 | 0.00 | 0.00 | 95 | 1021.7 |
| 20260504213128 | 65 | 248 | 2.6 | 2.6 | 0.00 | 0.00 | 0.00 | 95 | 1021.5 |
| 20260504212624 | 65 | 116 | 1.7 | 4.3 | 0.00 | 0.00 | 0.00 | 95 | 1021.4 |
| 20260504212121 | 65 | 126 | 1.7 | 2.6 | 0.00 | 0.00 | 0.00 | 95 | 1021.5 |
| 20260504211619 | 65 | 71 | 1.7 | 1.7 | 0.00 | 0.00 | 0.00 | 95 | 1021.5 |
| 20260504211114 | 65 | 175 | 2.6 | 4.3 | 0.00 | 0.00 | 0.00 | 94 | 1021.4 |
| 20260504210613 | 65 | 208 | 3.5 | 5.2 | 0.00 | 0.00 | 0.00 | 94 | 1021.4 |
| 20260504210108 | 65 | 342 | 1.7 | 2.6 | 0.00 | 0.00 | 0.00 | 94 | 1021.4 |
| 20260504205606 | 65 | 93 | 3.5 | 4.3 | 0.00 | 0.00 | 0.00 | 95 | 1021.3 |
| 20260504205104 | 65 | 83 | 7.0 | 9.6 | 0.00 | 0.00 | 0.00 | 94 | 1021.3 |
| 20260504204602 | 66 | 106 | 3.5 | 5.2 | 0.00 | 0.00 | 0.00 | 94 | 1021.4 |
| 20260504204101 | 66 | 162 | 7.0 | 8.7 | 0.00 | 0.00 | 0.00 | 93 | 1021.4 |
| 20260504203559 | 66 | 166 | 3.5 | 7.0 | 0.00 | 0.00 | 0.00 | 93 | 1021.2 |
| 20260504203056 | 66 | 77 | 0.9 | 0.9 | 0.00 | 0.00 | 0.00 | 92 | 1021.1 |
| 20260504202551 | 66 | 303 | 2.6 | 7.0 | 0.00 | 0.00 | 0.00 | 92 | 1021.1 |
| 20260504202048 | 66 | 166 | 9.6 | 11.3 | 0.00 | 0.00 | 0.00 | 92 | 1021.2 |
| 20260504201545 | 66 | 157 | 7.8 | 9.6 | 0.00 | 0.00 | 0.00 | 92 | 1021.4 |
| 20260504201043 | 67 | 159 | 8.7 | 9.6 | 0.00 | 0.00 | 0.00 | 91 | 1021.0 |
| 20260504200539 | 67 | 189 | 7.8 | 12.2 | 0.00 | 0.00 | 0.00 | 91 | 1021.2 |
| 20260504200036 | 67 | 251 | 4.3 | 9.6 | 0.00 | 0.00 | 0.00 | 90 | 1021.0 |
| 20260504195532 | 68 | 192 | 8.7 | 12.2 | 0.00 | 0.00 | 0.00 | 90 | 1020.9 |
| 20260504195029 | 68 | 169 | 7.0 | 7.8 | 0.00 | 0.00 | 0.00 | 89 | 1021.0 |
| 20260504194525 | 69 | 194 | 7.0 | 9.6 | 0.00 | 0.00 | 0.00 | 88 | 1021.1 |
| 20260504194020 | 69 | 144 | 13.9 | 15.6 | 0.00 | 0.00 | 0.00 | 87 | 1020.8 |
| 20260504193518 | 70 | 177 | 7.8 | 12.2 | 0.00 | 0.00 | 0.00 | 85 | 1020.7 |
| 20260504193017 | 70 | 243 | 7.8 | 11.3 | 0.00 | 0.00 | 0.00 | 85 | 1020.6 |
| 20260504192514 | 72 | 119 | 11.3 | 14.8 | 0.00 | 0.00 | 0.00 | 83 | 1020.6 |
| 20260504192012 | 78 | 148 | 16.5 | 20.9 | 0.00 | 0.00 | 0.00 | 73 | 1020.3 |
| 20260504191510 | 78 | 275 | 0.0 | 0.0 | 0.00 | 0.00 | 0.00 | 64 | 1020.1 |
| 20260504191006 | 78 | 340 | 1.7 | 1.7 | 0.00 | 0.00 | 0.00 | 64 | 1020.3 |
| 20260504190501 | 79 | 8 | 1.7 | 1.7 | 0.00 | 0.00 | 0.00 | 64 | 1020.1 |
| 20260504185958 | 79 | 3 | 2.6 | 2.6 | 0.00 | 0.00 | 0.00 | 63 | 1020.0 |
| 20260504185455 | 79 | 20 | 1.7 | 2.6 | 0.00 | 0.00 | 0.00 | 64 | 1020.1 |
| 20260504184951 | 80 | 4 | 2.6 | 4.3 | 0.00 | 0.00 | 0.00 | 62 | 1020.0 |
| 20260504184447 | 81 | 308 | 1.7 | 1.7 | 0.00 | 0.00 | 0.00 | 61 | 1020.2 |
| 20260504183943 | 80 | 355 | 1.7 | 1.7 | 0.00 | 0.00 | 0.00 | 62 | 1020.1 |
| 20260504183440 | 80 | 349 | 0.9 | 0.9 | 0.00 | 0.00 | 0.00 | 63 | 1020.1 |
| 20260504182938 | 79 | 341 | 0.9 | 0.9 | 0.00 | 0.00 | 0.00 | 63 | 1020.1 |
| 20260504182434 | 78 | 274 | 2.6 | 2.6 | 0.00 | 0.00 | 0.00 | 64 | 1020.2 |
| 20260504181931 | 78 | 335 | 4.3 | 5.2 | 0.00 | 0.00 | 0.00 | 64 | 1020.1 |
| 20260504181423 | 79 | 12 | 2.6 | 4.3 | 0.00 | 0.00 | 0.00 | 64 | 1020.0 |
| 20260504180922 | 79 | 333 | 2.6 | 4.3 | 0.00 | 0.00 | 0.00 | 63 | 1020.3 |
| 20260504180421 | 82 | 325 | 1.7 | 1.7 | 0.00 | 0.00 | 0.00 | 60 | 1019.9 |
| 20260504175918 | 80 | 263 | 0.9 | 0.9 | 0.00 | 0.00 | 0.00 | 62 | 1020.0 |
| 20260504175415 | 78 | 347 | 0.9 | 0.9 | 0.00 | 0.00 | 0.00 | 64 | 1020.1 |
| 20260504174913 | 80 | 15 | 4.3 | 5.2 | 0.00 | 0.00 | 0.00 | 63 | 1020.3 |
| 20260504174410 | 80 | 11 | 0.9 | 1.7 | 0.00 | 0.00 | 0.00 | 63 | 1020.3 |
| 20260504173907 | 80 | 73 | 2.6 | 2.6 | 0.00 | 0.00 | 0.00 | 64 | 1020.2 |
| 20260504173404 | 80 | 341 | 0.9 | 0.9 | 0.00 | 0.00 | 0.00 | 62 | 1020.4 |
| 20260504172901 | 80 | 332 | 2.6 | 4.3 | 0.00 | 0.00 | 0.00 | 63 | 1020.3 |
| 20260504172357 | 79 | 87 | 1.7 | 1.7 | 0.00 | 0.00 | 0.00 | 64 | 1020.3 |
| 20260504171853 | 79 | 287 | 2.6 | 2.6 | 0.00 | 0.00 | 0.00 | 64 | 1020.3 |
| 20260504171351 | 79 | 303 | 0.9 | 1.7 | 0.00 | 0.00 | 0.00 | 63 | 1020.4 |
| 20260504170848 | 79 | 352 | 2.6 | 2.6 | 0.00 | 0.00 | 0.00 | 64 | 1020.6 |
| 20260504170344 | 79 | 47 | 0.9 | 1.7 | 0.00 | 0.00 | 0.00 | 64 | 1020.6 |
| 20260504160303 | 77 | 24 | 1.7 | 1.7 | 0.00 | 0.00 | 0.00 | 67 | 1021.7 |
| 20260504150728 | 72 | 347 | 0.0 | 0.9 | 0.00 | 0.00 | 0.00 | 72 | 1022.3 |
| 20260504150225 | 73 | 72 | 4.3 | 5.2 | 0.00 | 0.00 | 0.00 | 72 | 1022.5 |
| 20260504141154 | 71 | 18 | 0.9 | 1.7 | 0.00 | 0.00 | 0.00 | 74 | 1023.0 |
| 20260504140651 | 70 | 335 | 0.9 | 1.7 | 0.00 | 0.00 | 0.00 | 75 | 1023.2 |
| 20260504140146 | 70 | 358 | 0.9 | 0.9 | 0.00 | 0.00 | 0.00 | 75 | 1023.3 |
| 20260504130615 | 66 | 354 | 0.9 | 1.7 | 0.00 | 0.00 | 0.00 | 81 | 1023.8 |
| 20260504130112 | 66 | 44 | 4.3 | 7.8 | 0.00 | 0.00 | 0.00 | 82 | 1023.7 |